SCP
0 0 0 0 0 0 0 0 0 0 0 0 0 0 0 0 0 0 0 0 0 0 0 0 0 0 0 0 0 0 0 0 0 0 0 0 0 0 0 0 0 0 0
0 0 0 0 0 0 0 0 0 0 0 0 0 0 0 0 0 0 0 0 0 0 0 0 0 0 0 0 0 0 0 0 0 0 0 0 0 0 0 0 0 0 0
0 0 0 0 0 0 0 0 0 0 0 0 0 0 0 0 0 0 0 0 0 0 0 0 0 0 0 0 0 0 0 0 0 0 0 0 0 0 0 0 0 0 0
0 0 0 0 0 0 0 0 0 0 0 0 0 0 0 0 0 0 0 0 0 0 0 0 0 0 0 0 0 0 0 0 0 0 0 0 0 0 0 0 0 0 0
0 0 0 0 0 0 0 0 0 0 0 0 0 0 0 0 0 0 0 0 0 0 0 0 0 0 0 0 0 0 0 0 0 0 0 0 0 0 0 0 0 0 0
0 0 0 0 0 0 0 0 0 0 0 0 0 0 0 0 0 0 0 0 0 0 0 0 0 0 0 0 0 0 0 0 0 0 0 0 0 0 0 0 0 0 0
0 0 0 0 0 0 0 0 0 0 0 0 0 0 0 0 0 0 0 0 0 0 0 0 0 0 0 0 0 0 0 0 0 0 0 0 0 0 0 0 0 0 0
0 0 0 0 0 0 0 0 0 0 0 0 0 0 0 0 0 0 0 0 0 0 0 0 0 0 0 0 0 0 0 0 0 0 0 0 0 0 0 0 0 0 0
0 0 0 0 0 0 0 0 0 0 0 0 0 0 0 0 0 0 0 0 0 0 0 0 0 0 0 0 0 0 0 0 0 0 0 0 0 0 0 0 0 0 0
0 0 0 0 0 0 0 0 0 0 0 0 0 0 0 0 0 0 0 0 0 0 0 0 0 0 0 0 0 0 0 0 0 0 0 0 0 0 0 0 0 0 0
0 0 0 0 0 0 0 0 0 0 0 0 0 0 0 0 0 0 0 0 0 0 0 0 0 0 0 0 0 0 0 0 0 0 0 0 0 0 0 0 0 0 0
0 0 0 0 0 0 0 0 0 0 0 0 0 0 0 0 0 0 0 0 0 0 0 0 0 0 0 0 0 0 0 0 0 0 0 0 0 0 0 0 0 0 0
0 0 0 0 0 0 0 0 0 0 0 0 0 0 0 0 0 0 0 0 0 0 0 0 0 0 0 0 0 0 0 0 0 0 0 0 0 0 0 0 0 0 0
0 0 0 0 0 0 0 0 0 0 0 0 0 0 0 0 0 0 0 0 0 0 0 0 0 0 0 0 0 0 0 0 0 0 0 0 0 0 0 0 0 0 0
0 0 0 0 0 0 0 0 0 0 0 0 0 0 0 0 0 0 0 0 0 0 0 0 0 0 0 0 0 0 0 0 0 0 0 0 0 0 0 0 0 0 0
0 0 0 0 0 0 0 0 0 0 0 0 0 0 0 0 0 0 0 0 0 0 0 0 0 0 0 0 0 0 0 0 0 0 0 0 0 0 0 0 0 0 0
0 0 0 0 0 0 0 0 0 0 0 0 0 0 0 0 0 0 0 0 0 0 0 0 0 0 0 0 0 0 0 0 0 0 0 0 0 0 0 0 0 0 0
0 0 0 0 0 0 0 0 0 0 0 0 0 0 0 0 0 0 0 0 0 0 0 0 0 0 0 0 0 0 0 0 0 0 0 0 0 0 0 0 0 0 0
0 0 0 0 0 0 0 0 0 0 0 0 0 0 0 0 0 0 0 0 0 0 0 0 0 0 0 0 0 0 0 0 0 0 0 0 0 0 0 0 0 0 0
0 0 0 0 0 0 0 0 0 0 0 0 0 0 0 0 0 0 0 0 0 0 0 0 0 0 0 0 0 0 0 0 0 0 0 0 0 0 0 0 0 0 0
0 0 0 0 0 0 0 0 0 0 0 0 0 0 0 0 0 0 0 0 0 0 0 0 0 0 0 0 0 0 0 0 0 0 0 0 0 0 0 0 0 0 0
0 0 0 0 0 0 0 0 0 0 0 0 0 0 0 0 0 0 0 0 0 0 0 0 0 0 0 0 0 0 0 0 0 0 0 0 0 0 0 0 0 0 0
0 0 0 0 0 0 0 0 0 0 0 0 0 0 0 0 0 0 0 0 0 0 0 0 0 0 0 0 0 0 0 0 0 0 0 0 0 0 0 0 0 0 0
0 0 0 0 0 0 0 0 0 0 0 0 0 0 0 0 0 0 0 0 0 0 0 0 0 0 0 0 0 0 0 0 0 0 0 0 0 0 0 0 0 0 0
0 0 0 0 0 0 0 0 0 0 0 0 0 0 0 0 0 0 0 0 0 0 0 0 0 0 0 0 0 0 0 0 0 0 0 0 0 0 0 0 0 0 0
0 0 0 0 0 0 0 0 0 0 0 0 0 0 0 0 0 0 0 0 0 0 0 0 0 0 0 0 0 0 0 0 0 0 0 0 0 0 0 0 0 0 0
Wind_Speed_500mb
75 88 95 99 102 108 112 108 106 105 102 95 95 92 88 88 96 101 106 105 98 94 90 87 82 76 73 73 71 66 63 60 59 51 54 52 45 44 38 34 32 30 30
62 69 82 91 95 96 98 97 97 104 103 98 90 91 91 86 87 90 89 105 107 102 98 93 88 83 77 74 74 71 68 64 62 60 52 55 54 48 42 39 36 37 35
48 62 73 81 84 85 89 90 93 94 99 97 91 88 92 90 87 88 87 86 101 105 103 99 95 89 82 77 75 75 71 68 65 62 57 57 56 56 51 48 43 42 39
37 47 57 67 76 78 81 85 89 93 95 98 93 87 85 90 88 85 81 83 90 95 97 103 101 96 85 78 76 79 74 71 69 64 60 57 59 58 56 55 52 50 45
29 34 45 54 61 66 72 78 84 92 93 96 90 86 82 88 89 86 83 78 84 93 93 92 92 91 86 75 73 80 78 76 75 69 68 67 65 69 70 63 56 53 49
32 29 28 37 50 58 64 71 78 85 89 92 92 86 84 90 90 86 84 80 78 89 92 88 82 78 80 81 78 77 78 80 80 78 77 77 73 71 70 70 65 64 58
49 41 31 31 38 47 56 63 74 82 85 93 92 91 86 89 88 84 81 82 81 83 86 83 80 77 76 82 76 81 79 76 72 74 80 80 76 74 75 75 73 70 63
56 51 46 40 41 42 48 58 66 68 80 84 87 89 84 85 85 80 76 77 84 81 80 81 78 77 76 80 81 85 80 80 75 77 74 63 64 67 71 74 74 67 58
62 59 54 51 54 52 50 54 62 69 74 80 82 83 83 82 80 75 71 76 87 85 78 79 78 77 72 77 83 86 84 82 76 69 62 61 59 61 67 77 78 74 68
67 59 63 67 64 61 57 54 59 65 72 75 78 81 80 79 78 73 68 73 86 89 83 81 81 76 72 78 83 87 88 85 80 75 71 64 58 59 62 69 78 81 71
44 44 53 61 61 62 60 56 57 62 65 71 73 75 77 75 76 71 67 73 85 88 86 86 84 78 74 75 79 83 82 77 77 72 70 69 67 70 71 75 77 79 73
52 50 54 60 59 58 63 61 58 61 64 68 70 72 73 73 76 69 67 68 78 84 83 83 83 77 74 72 75 75 79 70 72 75 75 76 77 79 81 79 78 79 72
59 62 73 68 67 63 64 66 63 66 66 68 71 74 75 73 72 69 63 63 81 76 76 74 74 75 70 69 75 82 76 74 73 76 79 82 78 74 82 80 82 82 77
65 70 72 71 73 68 66 67 67 71 71 74 73 75 76 74 74 72 70 68 76 71 75 68 69 71 73 73 79 77 81 89 87 89 83 81 80 86 90 90 93 91 87
57 59 58 62 66 66 66 67 69 71 70 72 73 71 75 77 77 73 71 76 76 76 71 70 71 75 82 83 84 87 87 90 80 81 85 84 86 90 96 95 92 91 91
55 59 56 58 62 66 66 65 66 66 59 60 60 56 58 66 66 67 70 73 74 76 75 83 82 83 90 92 95 91 92 89 79 83 87 94 96 93 99 97 95 93 94
53 53 55 60 61 61 63 63 62 60 56 52 49 49 52 52 53 55 60 66 71 68 80 87 86 88 94 95 96 100 93 88 82 88 93 91 92 93 101 101 99 96 95
47 51 52 53 55 56 54 53 52 52 53 50 51 50 47 42 45 48 48 53 66 71 81 85 86 87 95 98 103 96 88 90 89 89 87 92 93 92 100 102 100 99 98
44 46 43 39 40 43 46 46 45 44 45 47 47 49 46 40 40 43 48 61 73 79 80 78 81 89 90 93 93 87 91 93 88 90 92 92 89 90 95 98 103 100 97
40 39 39 39 40 43 43 43 43 43 44 47 47 49 46 43 46 48 53 60 66 72 76 75 81 83 82 82 84 87 90 88 88 89 93 91 89 88 95 104 108 104 100
36 36 37 38 39 41 42 43 42 42 44 45 46 44 45 51 54 56 60 63 63 66 72 75 79 78 76 77 80 82 83 84 83 86 87 86 91 100 104 105 98 96 93
31 30 34 38 37 38 38 39 39 39 40 41 41 39 40 48 55 58 60 63 62 62 63 67 71 72 73 74 75 77 78 78 79 80 82 90 98 102 97 93 91 90 88
25 24 28 34 34 33 34 35 35 36 37 37 38 38 41 49 53 57 60 60 58 58 59 60 63 65 66 66 65 65 67 68 70 73 79 85 90 89 87 91 92 89 87
22 23 26 29 30 30 32 33 33 33 35 37 38 39 41 49 53 55 55 57 55 54 55 55 52 49 48 49 49 50 50 53 57 61 66 72 78 82 86 88 87 84 81
18 22 23 25 26 29 29 31 32 34 35 37 39 41 42 46 51 52 51 52 48 47 45 41 39 40 40 40 41 44 46 46 49 53 58 64 69 74 80 82 82 82 82
13 16 20 21 23 25 28 30 32 33 35 37 39 41 43 47 50 53 53 50 45 40 37 38 38 40 41 41 41 43 46 49 49 50 54 61 64 66 70 75 77 78 77
Wind_Direction_500mb
245 241 238 238 238 238 237 237 238 241 243 246 248 246 241 242 241 241 242 243 241 242 242 245 244 246 244 243 243 241 239 235 239 242 236 235 230 228 226 221 216 212 203
246 246 243 242 239 234 232 231 235 241 243 245 247 248 245 245 244 243 243 244 243 242 243 244 246 244 243 241 242 240 237 236 235 240 241 231 226 222 222 217 213 208 204
259 251 246 244 239 233 232 231 231 234 243 245 245 246 246 245 244 247 245 245 246 246 246 245 246 243 243 240 240 239 237 238 238 238 237 234 227 218 216 211 207 208 204
263 255 249 247 244 238 238 235 232 234 237 245 245 247 248 247 247 246 248 248 247 248 246 247 245 241 241 243 243 240 237 237 236 234 234 234 230 219 215 215 206 205 205
281 260 256 252 250 248 246 244 243 240 242 245 246 247 249 246 246 244 245 246 247 249 248 246 244 244 240 240 247 242 237 235 234 231 229 227 224 216 215 212 210 207 203
288 292 279 260 255 251 249 247 247 244 245 245 246 246 249 246 246 246 245 246 248 247 247 246 244 240 235 233 238 242 242 237 232 231 229 228 227 224 218 214 205 201 201
275 288 282 274 267 256 251 248 244 241 242 241 246 245 248 247 248 247 246 246 246 249 248 248 244 239 233 231 230 238 238 239 241 247 238 232 228 228 221 212 211 210 206
268 269 275 282 277 270 256 250 247 248 246 245 245 246 249 250 249 247 246 246 245 248 247 246 244 240 232 228 226 232 231 233 232 235 239 245 245 237 226 221 211 207 205
278 273 275 278 285 269 262 254 248 243 245 246 244 246 247 248 248 247 242 242 242 245 245 242 242 240 231 228 224 228 228 229 230 232 232 233 237 238 226 217 211 205 203
266 270 274 273 273 267 264 262 255 246 242 245 245 246 248 246 247 245 242 241 241 239 240 239 240 240 232 226 222 224 226 227 226 220 217 221 225 223 223 221 215 207 204
266 270 267 265 264 260 260 259 255 250 244 241 246 248 250 248 247 244 240 239 240 238 237 237 237 236 231 226 223 225 227 230 226 220 217 218 218 216 213 214 214 217 206
264 260 260 262 262 259 258 259 253 246 245 240 242 245 247 248 248 246 242 237 242 241 241 240 238 236 232 223 221 224 227 227 223 217 216 216 216 215 212 209 209 215 213
264 251 254 256 262 258 256 253 249 243 241 241 238 242 242 243 244 245 243 239 241 240 242 244 242 236 232 225 221 220 219 214 213 215 221 221 219 221 215 209 208 212 211
266 258 251 252 253 252 251 250 245 242 241 240 238 237 242 240 240 239 237 234 238 240 239 239 237 232 224 217 215 215 213 215 221 220 223 218 215 218 212 210 208 209 208
276 259 246 245 246 249 249 249 247 247 246 247 247 244 240 241 239 238 235 232 231 231 231 232 227 221 213 209 207 210 213 216 230 223 220 218 218 216 213 211 211 213 212
276 260 250 247 245 245 244 242 241 243 244 246 250 250 251 250 247 243 240 236 235 232 227 225 220 216 210 205 207 209 216 221 223 217 221 222 220 216 214 212 215 216 217
273 264 252 246 241 238 237 237 236 236 236 237 240 243 245 245 247 244 239 236 233 229 227 224 222 217 210 210 211 214 218 221 220 219 221 221 220 220 216 213 215 216 219
268 259 250 244 238 235 234 234 231 233 237 239 237 236 238 237 236 239 235 231 228 226 226 221 219 219 213 211 214 217 222 224 223 222 222 224 222 222 219 217 219 220 220
262 253 241 235 231 226 226 227 231 233 237 238 238 236 234 231 231 230 230 226 221 218 217 219 219 219 219 218 219 222 231 228 227 224 223 225 224 223 221 222 224 224 226
255 243 235 231 227 223 223 225 226 226 231 236 237 236 233 224 219 215 220 223 222 221 219 216 216 221 222 222 222 232 231 229 229 227 226 224 223 222 222 224 225 225 226
245 237 232 231 227 224 220 222 225 228 232 236 238 238 235 228 221 214 212 215 218 219 219 218 219 221 222 224 230 232 232 233 231 229 227 226 222 221 223 228 229 230 230
238 234 228 228 227 223 221 221 224 229 233 237 239 237 229 224 223 217 214 216 218 221 223 222 222 225 228 230 232 233 234 235 233 230 229 226 224 226 228 229 230 231 233
232 231 226 228 226 226 223 223 225 228 232 235 237 233 222 219 221 221 218 219 220 222 223 223 225 228 231 234 236 238 238 237 235 234 234 231 230 231 230 232 231 231 233
225 225 224 226 225 225 227 228 228 230 232 232 233 232 227 222 222 224 224 224 224 224 223 224 226 228 232 235 236 237 236 235 236 236 236 236 238 239 235 233 234 235 237
222 223 224 227 229 228 230 229 230 230 232 234 233 233 230 227 227 225 225 223 221 219 220 221 225 226 224 228 231 232 230 228 230 231 232 235 237 239 236 235 235 236 237
215 224 228 230 232 234 234 233 233 233 232 233 233 234 232 230 227 224 220 215 212 209 209 215 217 220 223 226 229 227 226 228 229 230 233 236 235 234 232 233 236 237 239
Wind_Speed_850mb
75 88 95 99 102 108 112 108 106 105 102 95 95 92 88 88 96 101 106 105 98 94 90 87 82 76 73 73 71 66 63 60 59 51 54 52 45 44 38 34 32 30 30
62 69 82 91 95 96 98 97 97 104 103 98 90 91 91 86 87 90 89 105 107 102 98 93 88 83 77 74 74 71 68 64 62 60 52 55 54 48 42 39 36 37 35
48 62 73 81 84 85 89 90 93 94 99 97 91 88 92 90 87 88 87 86 101 105 103 99 95 89 82 77 75 75 71 68 65 62 57 57 56 56 51 48 43 42 39
37 47 57 67 76 78 81 85 89 93 95 98 93 87 85 90 88 85 81 83 90 95 97 103 101 96 85 78 76 79 74 71 69 64 60 57 59 58 56 55 52 50 45
29 34 45 54 61 66 72 78 84 92 93 96 90 86 82 88 89 86 83 78 84 93 93 92 92 91 86 75 73 80 78 76 75 69 68 67 65 69 70 63 56 53 49
32 29 28 37 50 58 64 71 78 85 89 92 92 86 84 90 90 86 84 80 78 89 92 88 82 78 80 81 78 77 78 80 80 78 77 77 73 71 70 70 65 64 58
49 41 31 31 38 47 56 63 74 82 85 93 92 91 86 89 88 84 81 82 81 83 86 83 80 77 76 82 76 81 79 76 72 74 80 80 76 74 75 75 73 70 63
56 51 46 40 41 42 48 58 66 68 80 84 87 89 84 85 85 80 76 77 84 81 80 81 78 77 76 80 81 85 80 80 75 77 74 63 64 67 71 74 74 67 58
62 59 54 51 54 52 50 54 62 69 74 80 82 83 83 82 80 75 71 76 87 85 78 79 78 77 72 77 83 86 84 82 76 69 62 61 59 61 67 77 78 74 68
67 59 63 67 64 61 57 54 59 65 72 75 78 81 80 79 78 73 68 73 86 89 83 81 81 76 72 78 83 87 88 85 80 75 71 64 58 59 62 69 78 81 71
44 44 53 61 61 62 60 56 57 62 65 71 73 75 77 75 76 71 67 73 85 88 86 86 84 78 74 75 79 83 82 77 77 72 70 69 67 70 71 75 77 79 73
52 50 54 60 59 58 63 61 58 61 64 68 70 72 73 73 76 69 67 68 78 84 83 83 83 77 74 72 75 75 79 70 72 75 75 76 77 79 81 79 78 79 72
59 62 73 68 67 63 64 66 63 66 66 68 71 74 75 73 72 69 63 63 81 76 76 74 74 75 70 69 75 82 76 74 73 76 79 82 78 74 82 80 82 82 77
65 70 72 71 73 68 66 67 67 71 71 74 73 75 76 74 74 72 70 68 76 71 75 68 69 71 73 73 79 77 81 89 87 89 83 81 80 86 90 90 93 91 87
57 59 58 62 66 66 66 67 69 71 70 72 73 71 75 77 77 73 71 76 76 76 71 70 71 75 82 83 84 87 87 90 80 81 85 84 86 90 96 95 92 91 91
55 59 56 58 62 66 66 65 66 66 59 60 60 56 58 66 66 67 70 73 74 76 75 83 82 83 90 92 95 91 92 89 79 83 87 94 96 93 99 97 95 93 94
53 53 55 60 61 61 63 63 62 60 56 52 49 49 52 52 53 55 60 66 71 68 80 87 86 88 94 95 96 100 93 88 82 88 93 91 92 93 101 101 99 96 95
47 51 52 53 55 56 54 53 52 52 53 50 51 50 47 42 45 48 48 53 66 71 81 85 86 87 95 98 103 96 88 90 89 89 87 92 93 92 100 102 100 99 98
44 46 43 39 40 43 46 46 45 44 45 47 47 49 46 40 40 43 48 61 73 79 80 78 81 89 90 93 93 87 91 93 88 90 92 92 89 90 95 98 103 100 97
40 39 39 39 40 43 43 43 43 43 44 47 47 49 46 43 46 48 53 60 66 72 76 75 81 83 82 82 84 87 90 88 88 89 93 91 89 88 95 104 108 104 100
36 36 37 38 39 41 42 43 42 42 44 45 46 44 45 51 54 56 60 63 63 66 72 75 79 78 76 77 80 82 83 84 83 86 87 86 91 100 104 105 98 96 93
31 30 34 38 37 38 38 39 39 39 40 41 41 39 40 48 55 58 60 63 62 62 63 67 71 72 73 74 75 77 78 78 79 80 82 90 98 102 97 93 91 90 88
25 24 28 34 34 33 34 35 35 36 37 37 38 38 41 49 53 57 60 60 58 58 59 60 63 65 66 66 65 65 67 68 70 73 79 85 90 89 87 91 92 89 87
22 23 26 29 30 30 32 33 33 33 35 37 38 39 41 49 53 55 55 57 55 54 55 55 52 49 48 49 49 50 50 53 57 61 66 72 78 82 86 88 87 84 81
18 22 23 25 26 29 29 31 32 34 35 37 39 41 42 46 51 52 51 52 48 47 45 41 39 40 40 40 41 44 46 46 49 53 58 64 69 74 80 82 82 82 82
13 16 20 21 23 25 28 30 32 33 35 37 39 41 43 47 50 53 53 50 45 40 37 38 38 40 41 41 41 43 46 49 49 50 54 61 64 66 70 75 77 78 77
Wind_Direction_850mb
245 241 238 238 238 238 237 237 238 241 243 246 248 246 241 242 241 241 242 243 241 242 242 245 244 246 244 243 243 241 239 235 239 242 236 235 230 228 226 221 216 212 203
246 246 243 242 239 234 232 231 235 241 243 245 247 248 245 245 244 243 243 244 243 242 243 244 246 244 243 241 242 240 237 236 235 240 241 231 226 222 222 217 213 208 204
259 251 246 244 239 233 232 231 231 234 243 245 245 246 246 245 244 247 245 245 246 246 246 245 246 243 243 240 240 239 237 238 238 238 237 234 227 218 216 211 207 208 204
263 255 249 247 244 238 238 235 232 234 237 245 245 247 248 247 247 246 248 248 247 248 246 247 245 241 241 243 243 240 237 237 236 234 234 234 230 219 215 215 206 205 205
281 260 256 252 250 248 246 244 243 240 242 245 246 247 249 246 246 244 245 246 247 249 248 246 244 244 240 240 247 242 237 235 234 231 229 227 224 216 215 212 210 207 203
288 292 279 260 255 251 249 247 247 244 245 245 246 246 249 246 246 246 245 246 248 247 247 246 244 240 235 233 238 242 242 237 232 231 229 228 227 224 218 214 205 201 201
275 288 282 274 267 256 251 248 244 241 242 241 246 245 248 247 248 247 246 246 246 249 248 248 244 239 233 231 230 238 238 239 241 247 238 232 228 228 221 212 211 210 206
268 269 275 282 277 270 256 250 247 248 246 245 245 246 249 250 249 247 246 246 245 248 247 246 244 240 232 228 226 232 231 233 232 235 239 245 245 237 226 221 211 207 205
278 273 275 278 285 269 262 254 248 243 245 246 244 246 247 248 248 247 242 242 242 245 245 242 242 240 231 228 224 228 228 229 230 232 232 233 237 238 226 217 211 205 203
266 270 274 273 273 267 264 262 255 246 242 245 245 246 248 246 247 245 242 241 241 239 240 239 240 240 232 226 222 224 226 227 226 220 217 221 225 223 223 221 215 207 204
266 270 267 265 264 260 260 259 255 250 244 241 246 248 250 248 247 244 240 239 240 238 237 237 237 236 231 226 223 225 227 230 226 220 217 218 218 216 213 214 214 217 206
264 260 260 262 262 259 258 259 253 246 245 240 242 245 247 248 248 246 242 237 242 241 241 240 238 236 232 223 221 224 227 227 223 217 216 216 216 215 212 209 209 215 213
264 251 254 256 262 258 256 253 249 243 241 241 238 242 242 243 244 245 243 239 241 240 242 244 242 236 232 225 221 220 219 214 213 215 221 221 219 221 215 209 208 212 211
266 258 251 252 253 252 251 250 245 242 241 240 238 237 242 240 240 239 237 234 238 240 239 239 237 232 224 217 215 215 213 215 221 220 223 218 215 218 212 210 208 209 208
276 259 246 245 246 249 249 249 247 247 246 247 247 244 240 241 239 238 235 232 231 231 231 232 227 221 213 209 207 210 213 216 230 223 220 218 218 216 213 211 211 213 212
276 260 250 247 245 245 244 242 241 243 244 246 250 250 251 250 247 243 240 236 235 232 227 225 220 216 210 205 207 209 216 221 223 217 221 222 220 216 214 212 215 216 217
273 264 252 246 241 238 237 237 236 236 236 237 240 243 245 245 247 244 239 236 233 229 227 224 222 217 210 210 211 214 218 221 220 219 221 221 220 220 216 213 215 216 219
268 259 250 244 238 235 234 234 231 233 237 239 237 236 238 237 236 239 235 231 228 226 226 221 219 219 213 211 214 217 222 224 223 222 222 224 222 222 219 217 219 220 220
262 253 241 235 231 226 226 227 231 233 237 238 238 236 234 231 231 230 230 226 221 218 217 219 219 219 219 218 219 222 231 228 227 224 223 225 224 223 221 222 224 224 226
255 243 235 231 227 223 223 225 226 226 231 236 237 236 233 224 219 215 220 223 222 221 219 216 216 221 222 222 222 232 231 229 229 227 226 224 223 222 222 224 225 225 226
245 237 232 231 227 224 220 222 225 228 232 236 238 238 235 228 221 214 212 215 218 219 219 218 219 221 222 224 230 232 232 233 231 229 227 226 222 221 223 228 229 230 230
238 234 228 228 227 223 221 221 224 229 233 237 239 237 229 224 223 217 214 216 218 221 223 222 222 225 228 230 232 233 234 235 233 230 229 226 224 226 228 229 230 231 233
232 231 226 228 226 226 223 223 225 228 232 235 237 233 222 219 221 221 218 219 220 222 223 223 225 228 231 234 236 238 238 237 235 234 234 231 230 231 230 232 231 231 233
225 225 224 226 225 225 227 228 228 230 232 232 233 232 227 222 222 224 224 224 224 224 223 224 226 228 232 235 236 237 236 235 236 236 236 236 238 239 235 233 234 235 237
222 223 224 227 229 228 230 229 230 230 232 234 233 233 230 227 227 225 225 223 221 219 220 221 225 226 224 228 231 232 230 228 230 231 232 235 237 239 236 235 235 236 237
215 224 228 230 232 234 234 233 233 233 232 233 233 234 232 230 227 224 220 215 212 209 209 215 217 220 223 226 229 227 226 228 229 230 233 236 235 234 232 233 236 237 239